Regional Weather Roundup
Issued by NWS

Home | Current Version | Previous Version | Text Only | Print | Product List | Glossary Off
Versions: 1 2 3 4 5 6 7 8 9 10 11 12 13 14 15 16 17 18 19 20 21 22 23 24 25 26 27 28 29 30 31 32 33 34 35 36 37 38 39 40 41 42 43 44 45 46 47 48 49 50

000
ASUS45 KCYS 241210
RWRWY

WYOMING REGIONAL WEATHER ROUNDUP
NATIONAL WEATHER SERVICE CHEYENNE WY
600 AM MDT MON JUL 24 2017

NOTE:  "FAIR" INDICATES FEW OR NO CLOUDS BELOW 12,000 FEET
WITH NO SIGNIFICANT WEATHER AND/OR OBSTRUCTIONS TO VISIBILITY.

WYZ001-241300-
YELLOWSTONE NATIONAL PARK

CITY           SKY/WX    TMP DP  RH WIND       PRES   REMARKS
LK YELLOWSTONE   N/A     40  39  97 CALM      30.27R
6HR MIN TEMP:  40; 6HR MAX TEMP:  48;

W YELLOWSTONE  NOT AVBL

$$
WYZ002>013-054>058-071-098>099-241300-
NORTHERN WYOMING

CITY           SKY/WX    TMP DP  RH WIND       PRES   REMARKS
JACKSON        FAIR      43  39  87 N6        30.18S
CODY           FAIR      71  37  28 SW8       30.00S
GREYBULL       FAIR      59  32  36 SE5       29.92R
6HR MIN TEMP:  59; 6HR MAX TEMP:  73;

WORLAND        FAIR      57  42  57 CALM      29.94R
6HR MIN TEMP:  56; 6HR MAX TEMP:  69;

SHERIDAN       FAIR      58  46  64 NW6       29.90R
6HR MIN TEMP:  58; 6HR MAX TEMP:  73;

BUFFALO        FAIR      64  45  49 S9        29.99S
6HR MIN TEMP:  60; 6HR MAX TEMP:  75;

GILLETTE       FAIR      61  55  81 SE5       29.93S
6HR MIN TEMP:  56; 6HR MAX TEMP:  72;

HULETT         FAIR      64  52  63 S7        29.92F
NEWCASTLE      FAIR      72  45  37 SE12      29.94S

$$
WYZ014>020-022>026-101>103-241300-
CENTRAL WYOMING

CITY           SKY/WX    TMP DP  RH WIND       PRES   REMARKS
BIG PINEY      FAIR      45  37  73 S3        30.22R
6HR MIN TEMP:  44; 6HR MAX TEMP:  56;

PINEDALE       FAIR      43  37  81 NW6       30.23S
DUBOIS         FAIR      54  34  47 NW12      30.19R
LANDER         FAIR      59  35  40 CALM      30.08R
6HR MIN TEMP:  55; 6HR MAX TEMP:  75;

RIVERTON       FAIR      64  34  32 W8        30.05S
6HR MIN TEMP:  59; 6HR MAX TEMP:  73;

CASPER         FAIR      59  41  51 SW10      30.05S
6HR MIN TEMP:  55; 6HR MAX TEMP:  73;

DOUGLAS          N/A     58  47  66 CALM      30.02R
6HR MIN TEMP:  57; 6HR MAX TEMP:  72;


$$
WYZ021-027>030-104>119-241300-
SOUTHERN WYOMING

CITY           SKY/WX    TMP DP  RH WIND       PRES   REMARKS
EVANSTON       FAIR      62  39  42 SW5       30.24R
6HR MIN TEMP:  58; 6HR MAX TEMP:  66;

KEMMERER         N/A     55  34  44 N7        30.24S
FORT BRIDGER   PTSUNNY   67  36  31 W9        30.25R
ROCK SPRINGS   FAIR      63  36  36 SW10      30.20R
6HR MIN TEMP:  61; 6HR MAX TEMP:  69;

RAWLINS        FAIR      55  29  36 E5        30.20R
6HR MIN TEMP:  52; 6HR MAX TEMP:  72;

SARATOGA       FAIR      61  41  48 SE10      30.24R
LARAMIE        FAIR      52  44  74 SE3       30.23R
6HR MIN TEMP:  50; 6HR MAX TEMP:  61;

CHEYENNE       FAIR      57  51  80 SW7       30.13S
6HR MIN TEMP:  57; 6HR MAX TEMP:  70;

TORRINGTON     FAIR      71  55  56 S10       29.96F
6HR MIN TEMP:  70; 6HR MAX TEMP:  76;

PINE BLUFFS    FAIR      63  55  77 S7        30.08S

$$



USA.gov is the U.S. government's official web portal to all federal, state and local government web resources and services.